Jork Reliance — V2CL2 — position and weather

sailwx.info

Track history (hours):
 
Tides and Currents Weather Stations Pressure Air Temp Water Temp Dewpoint Dewpoint Depression Visibility Wind Speed Wind Dir Waves Ship Positions

Jork Reliance

Last reported at 2014-Oct-26 02:28 UTC. Time now 2014-Oct-26 03:01 UTC.
Position N 49°50' W 003°15'.

Length 141 m; draft 6 m.

Type: Ship (hazmat cat A). MMSI: 305033000.

Date/timePositionNaut miles runAvg speedWind from/ knotsBaromVisibWave heightAir tempDewpointWater temp
2014-Oct-26 02:28N 49°50' W 003°15'12912.9
2014-Oct-25 16:26N 50°30' W 000°04'1313.9
2014-Oct-25 15:29N 50°34' E 000°16'1313.5
2014-Oct-25 14:33N 50°38' E 000°35'1312.7
2014-Oct-25 13:33N 50°45' E 000°51'1211.4
2014-Oct-25 12:33N 50°52' E 001°06'1110.7
2014-Oct-25 11:33N 50°59' E 001°18'1111.5
2014-Oct-25 10:34N 51°06' E 001°32'1413.7
2014-Oct-25 09:33N 51°15' E 001°49'1312.8
2014-Oct-25 08:33N 51°24' E 002°04'1212.3
2014-Oct-25 07:33N 51°21' E 002°24'1413.6
2014-Oct-25 06:32N 51°22' E 002°46'1616.1
2014-Oct-25 05:34N 51°24' E 003°11'1716.7
2014-Oct-25 04:34N 51°26' E 003°37'1312.8
2014-Oct-25 03:33N 51°25' E 003°58'1110.9
2014-Oct-25 02:34N 51°21' E 004°14'2 1.9
2014-Oct-25 01:34N 51°21' E 004°17'2 2.1
2014-Oct-25 00:32N 51°20' E 004°20'0 0.0
2014-Oct-24 23:32N 51°20' E 004°20'0 0.0
2014-Oct-24 22:26N 51°20' E 004°20'0 0.0
2014-Oct-24 21:32N 51°20' E 004°20'0 0.0
2014-Oct-24 20:32N 51°20' E 004°20'0 0.0
2014-Oct-24 19:32N 51°20' E 004°20'0 0.0
2014-Oct-24 18:29N 51°20' E 004°20'0 0.0
2014-Oct-24 17:29N 51°20' E 004°20'0 0.0
2014-Oct-24 16:32N 51°20' E 004°20'0 0.0
2014-Oct-24 15:32N 51°20' E 004°20'0 0.0
2014-Oct-24 14:29N 51°20' E 004°20'0 0.0
2014-Oct-24 13:32N 51°20' E 004°20'0 0.0
2014-Oct-24 12:32N 51°20' E 004°20'0 0.0
2014-Oct-24 11:29N 51°20' E 004°20'0 0.0
2014-Oct-24 10:32N 51°20' E 004°20'0 0.0
2014-Oct-24 09:30N 51°20' E 004°20'2 2.1
2014-Oct-24 08:34N 51°21' E 004°17'0 0.0
2014-Oct-24 07:34N 51°21' E 004°17'1 0.6
2014-Oct-24 06:33N 51°21' E 004°16'5 4.6
2014-Oct-24 05:34N 51°23' E 004°10'8 7.7
2014-Oct-24 04:33N 51°25' E 003°58'9 9.3
2014-Oct-24 03:33N 51°23' E 003°43'9 9.0
2014-Oct-24 02:33N 51°25' E 003°29'1313.2
2014-Oct-24 01:33N 51°24' E 003°08'1615.7
2014-Oct-24 00:33N 51°22' E 002°43'8 8.5
2014-Oct-23 23:33N 51°22' E 002°29'1313.4
2014-Oct-23 22:34N 51°15' E 002°10'1716.7
2014-Oct-23 21:34N 51°06' E 001°48'1211.5
2014-Oct-23 20:34N 51°03' E 002°06'4 4.0
2014-Oct-23 19:33N 51°01' E 002°11'0 0.0
2014-Oct-23 18:30N 51°01' E 002°11'0 0.0
2014-Oct-23 17:30N 51°01' E 002°11'0 0.0
2014-Oct-23 16:27N 51°01' E 002°11'0 0.0
2014-Oct-23 15:30N 51°01' E 002°11'0 0.0
2014-Oct-23 14:27N 51°01' E 002°11'0 0.0
2014-Oct-23 13:30N 51°01' E 002°11'0 0.0
2014-Oct-23 12:27N 51°01' E 002°11'0 0.0
2014-Oct-23 11:28N 51°01' E 002°11'4 4.0
2014-Oct-23 10:34N 51°03' E 002°07'1514.7
2014-Oct-23 09:33N 51°01' E 001°44'1414.4
2014-Oct-23 08:33N 50°50' E 001°28'2914.2
2014-Oct-23 06:31N 50°30' E 000°55'1414.7
2014-Oct-23 05:32N 50°25' E 000°34'7214.5
2014-Oct-23 00:32N 50°05' W 001°15'1514.0
2014-Oct-22 23:29N 50°01' W 001°37'1314.4
2014-Oct-22 22:33N 49°58' W 001°57'1615.7
2014-Oct-22 21:31N 49°54' W 002°22'3216.5
2014-Oct-22 19:33N 49°43' W 003°09'  
2014-Oct-20 10:33N 45°36' W 001°22'9 8.5
2014-Oct-20 09:30N 45°39' W 001°34'1111.1
2014-Oct-20 08:33N 45°42' W 001°49'1311.9
2014-Oct-20 07:28N 45°47' W 002°06'1212.9
2014-Oct-20 06:30N 45°53' W 002°21'1212.6
2014-Oct-20 05:33N 46°01' W 002°34'1212.1
2014-Oct-20 04:33N 46°10' W 002°46'1412.4
2014-Oct-20 03:27N 46°19' W 003°01'1212.7
2014-Oct-20 02:30N 46°28' W 003°13'10014.4
2014-Oct-19 19:33N 47°37' W 004°59'1514.8
2014-Oct-19 18:33N 47°47' W 005°15'2015.0
2014-Oct-19 17:14N 48°03' W 005°32'4014.9
2014-Oct-19 14:33N 48°40' W 005°56'21412.6
2014-Oct-18 21:34N 49°42' W 000°42'1515.2
2014-Oct-18 20:33N 49°35' W 000°21'1413.8
2014-Oct-18 19:33N 49°30' W 000°01'7 6.4
2014-Oct-18 18:31N 49°28' E 000°08'0 0.0
2014-Oct-18 17:31N 49°28' E 000°08'0 0.0
2014-Oct-18 16:31N 49°28' E 000°08'0 0.0
2014-Oct-18 15:31N 49°28' E 000°08'0 0.0
2014-Oct-18 14:31N 49°28' E 000°08'0 0.0
2014-Oct-18 13:31N 49°28' E 000°08'0 0.0
2014-Oct-18 12:31N 49°28' E 000°08'0 0.0
2014-Oct-18 11:31N 49°28' E 000°08'0 0.0
2014-Oct-18 10:31N 49°28' E 000°08'0 0.0
2014-Oct-18 09:31N 49°28' E 000°08'0 0.0
2014-Oct-18 08:31N 49°28' E 000°08'0 0.0
2014-Oct-18 07:31N 49°28' E 000°08'0 0.0
2014-Oct-18 06:31N 49°28' E 000°08'0 0.0
2014-Oct-18 05:31N 49°28' E 000°08'0 0.0
2014-Oct-18 04:31N 49°28' E 000°08'0 0.0
2014-Oct-18 03:31N 49°28' E 000°08'0 0.0
2014-Oct-18 02:31N 49°28' E 000°08'0 0.0
2014-Oct-18 01:31N 49°28' E 000°08'0 0.0
2014-Oct-18 00:31N 49°28' E 000°08'0 0.0
2014-Oct-17 23:31N 49°28' E 000°08'0 0.0
2014-Oct-17 22:31N 49°28' E 000°08'0 0.0
2014-Oct-17 21:31N 49°28' E 000°08'0 0.0
2014-Oct-17 20:31N 49°28' E 000°08'0 0.0
2014-Oct-17 19:31N 49°28' E 000°08'0 0.0
2014-Oct-17 18:31N 49°28' E 000°08'0 0.0
2014-Oct-17 17:33N 49°28' E 000°08'9 9.1
2014-Oct-17 16:33N 49°31' W 000°05'10 9.8
2014-Oct-17 15:33N 49°40' W 000°12'5310.6
2014-Oct-17 10:33N 50°31' E 000°11'1312.6
2014-Oct-17 09:33N 50°36' E 000°29'1212.4
2014-Oct-17 08:33N 50°43' E 000°45'1612.5
2014-Oct-17 07:19N 50°52' E 001°05'811.1
2014-Oct-17 06:33N 50°58' E 001°15'1110.7
2014-Oct-17 05:33N 51°04' E 001°28'1111.0
2014-Oct-17 04:33N 51°11' E 001°42'1211.8
2014-Oct-17 03:33N 51°20' E 001°54'1010.0
2014-Oct-17 02:33N 51°23' E 002°09'1211.8
2014-Oct-17 01:33N 51°23' E 002°28'1312.8
2014-Oct-17 00:33N 51°22' E 002°49'1717.0
2014-Oct-16 23:33N 51°25' E 003°16'1514.7
2014-Oct-16 22:33N 51°27' E 003°39'1211.8
2014-Oct-16 21:33N 51°26' E 003°58'1212.3
2014-Oct-16 20:34N 51°21' E 004°16'1 0.6
2014-Oct-16 19:34N 51°21' E 004°17'0 0.3
2014-Oct-16 18:33N 51°21' E 004°18'1 1.5
2014-Oct-16 17:32N 51°19' E 004°19'0 0.0
2014-Oct-16 16:32N 51°19' E 004°19'0 0.0
2014-Oct-16 15:32N 51°19' E 004°19'0 0.0
2014-Oct-16 14:32N 51°19' E 004°19'0 0.0
2014-Oct-16 13:32N 51°19' E 004°19'0 0.0
2014-Oct-16 12:26N 51°19' E 004°19'0 0.0
2014-Oct-16 11:32N 51°19' E 004°19'0 0.0
2014-Oct-16 10:32N 51°19' E 004°19'0 0.0
2014-Oct-16 09:29N 51°19' E 004°19'0 0.0
2014-Oct-16 08:32N 51°19' E 004°19'0 0.0
2014-Oct-16 07:32N 51°19' E 004°19'0 0.0
2014-Oct-16 06:32N 51°19' E 004°19'1 1.2
2014-Oct-16 05:34N 51°20' E 004°18'1 0.5
2014-Oct-16 04:34N 51°21' E 004°17'3 2.7
2014-Oct-16 03:33N 51°22' E 004°13'1010.1
2014-Oct-16 02:34N 51°25' E 003°58'  
Track history (hours):
 
Tides and Currents Weather Stations Pressure Air Temp Water Temp Dewpoint Dewpoint Depression Visibility Wind Speed Wind Dir Waves Ship Positions

Jork Reliance

Last reported at 2014-Oct-26 02:28 UTC. Time now 2014-Oct-26 03:01 UTC.
Position N 49°50' W 003°15'.

Length 141 m; draft 6 m.

Type: Ship (hazmat cat A). MMSI: 305033000.

Date/timePositionNaut miles runAvg speedWind from/ knotsBaromVisibWave heightAir tempDewpointWater temp
2014-Oct-26 02:28N 49°50' W 003°15'12912.9
2014-Oct-25 16:26N 50°30' W 000°04'1313.9
2014-Oct-25 15:29N 50°34' E 000°16'1313.5
2014-Oct-25 14:33N 50°38' E 000°35'1312.7
2014-Oct-25 13:33N 50°45' E 000°51'1211.4
2014-Oct-25 12:33N 50°52' E 001°06'1110.7
2014-Oct-25 11:33N 50°59' E 001°18'1111.5
2014-Oct-25 10:34N 51°06' E 001°32'1413.7
2014-Oct-25 09:33N 51°15' E 001°49'1312.8
2014-Oct-25 08:33N 51°24' E 002°04'1212.3
2014-Oct-25 07:33N 51°21' E 002°24'1413.6
2014-Oct-25 06:32N 51°22' E 002°46'1616.1
2014-Oct-25 05:34N 51°24' E 003°11'1716.7
2014-Oct-25 04:34N 51°26' E 003°37'1312.8
2014-Oct-25 03:33N 51°25' E 003°58'1110.9
2014-Oct-25 02:34N 51°21' E 004°14'2 1.9
2014-Oct-25 01:34N 51°21' E 004°17'2 2.1
2014-Oct-25 00:32N 51°20' E 004°20'0 0.0
2014-Oct-24 23:32N 51°20' E 004°20'0 0.0
2014-Oct-24 22:26N 51°20' E 004°20'0 0.0
2014-Oct-24 21:32N 51°20' E 004°20'0 0.0
2014-Oct-24 20:32N 51°20' E 004°20'0 0.0
2014-Oct-24 19:32N 51°20' E 004°20'0 0.0
2014-Oct-24 18:29N 51°20' E 004°20'0 0.0
2014-Oct-24 17:29N 51°20' E 004°20'0 0.0
2014-Oct-24 16:32N 51°20' E 004°20'0 0.0
2014-Oct-24 15:32N 51°20' E 004°20'0 0.0
2014-Oct-24 14:29N 51°20' E 004°20'0 0.0
2014-Oct-24 13:32N 51°20' E 004°20'0 0.0
2014-Oct-24 12:32N 51°20' E 004°20'0 0.0
2014-Oct-24 11:29N 51°20' E 004°20'0 0.0
2014-Oct-24 10:32N 51°20' E 004°20'0 0.0
2014-Oct-24 09:30N 51°20' E 004°20'2 2.1
2014-Oct-24 08:34N 51°21' E 004°17'0 0.0
2014-Oct-24 07:34N 51°21' E 004°17'1 0.6
2014-Oct-24 06:33N 51°21' E 004°16'5 4.6
2014-Oct-24 05:34N 51°23' E 004°10'8 7.7
2014-Oct-24 04:33N 51°25' E 003°58'9 9.3
2014-Oct-24 03:33N 51°23' E 003°43'9 9.0
2014-Oct-24 02:33N 51°25' E 003°29'1313.2
2014-Oct-24 01:33N 51°24' E 003°08'1615.7
2014-Oct-24 00:33N 51°22' E 002°43'8 8.5
2014-Oct-23 23:33N 51°22' E 002°29'1313.4
2014-Oct-23 22:34N 51°15' E 002°10'1716.7
2014-Oct-23 21:34N 51°06' E 001°48'1211.5
2014-Oct-23 20:34N 51°03' E 002°06'4 4.0
2014-Oct-23 19:33N 51°01' E 002°11'0 0.0
2014-Oct-23 18:30N 51°01' E 002°11'0 0.0
2014-Oct-23 17:30N 51°01' E 002°11'0 0.0
2014-Oct-23 16:27N 51°01' E 002°11'0 0.0
2014-Oct-23 15:30N 51°01' E 002°11'0 0.0
2014-Oct-23 14:27N 51°01' E 002°11'0 0.0
2014-Oct-23 13:30N 51°01' E 002°11'0 0.0
2014-Oct-23 12:27N 51°01' E 002°11'0 0.0
2014-Oct-23 11:28N 51°01' E 002°11'4 4.0
2014-Oct-23 10:34N 51°03' E 002°07'1514.7
2014-Oct-23 09:33N 51°01' E 001°44'1414.4
2014-Oct-23 08:33N 50°50' E 001°28'2914.2
2014-Oct-23 06:31N 50°30' E 000°55'1414.7
2014-Oct-23 05:32N 50°25' E 000°34'7214.5
2014-Oct-23 00:32N 50°05' W 001°15'1514.0
2014-Oct-22 23:29N 50°01' W 001°37'1314.4
2014-Oct-22 22:33N 49°58' W 001°57'1615.7
2014-Oct-22 21:31N 49°54' W 002°22'3216.5
2014-Oct-22 19:33N 49°43' W 003°09'  
2014-Oct-20 10:33N 45°36' W 001°22'9 8.5
2014-Oct-20 09:30N 45°39' W 001°34'1111.1
2014-Oct-20 08:33N 45°42' W 001°49'1311.9
2014-Oct-20 07:28N 45°47' W 002°06'1212.9
2014-Oct-20 06:30N 45°53' W 002°21'1212.6
2014-Oct-20 05:33N 46°01' W 002°34'1212.1
2014-Oct-20 04:33N 46°10' W 002°46'1412.4
2014-Oct-20 03:27N 46°19' W 003°01'1212.7
2014-Oct-20 02:30N 46°28' W 003°13'10014.4
2014-Oct-19 19:33N 47°37' W 004°59'1514.8
2014-Oct-19 18:33N 47°47' W 005°15'2015.0
2014-Oct-19 17:14N 48°03' W 005°32'4014.9
2014-Oct-19 14:33N 48°40' W 005°56'21412.6
2014-Oct-18 21:34N 49°42' W 000°42'1515.2
2014-Oct-18 20:33N 49°35' W 000°21'1413.8
2014-Oct-18 19:33N 49°30' W 000°01'7 6.4
2014-Oct-18 18:31N 49°28' E 000°08'0 0.0
2014-Oct-18 17:31N 49°28' E 000°08'0 0.0
2014-Oct-18 16:31N 49°28' E 000°08'0 0.0
2014-Oct-18 15:31N 49°28' E 000°08'0 0.0
2014-Oct-18 14:31N 49°28' E 000°08'0 0.0
2014-Oct-18 13:31N 49°28' E 000°08'0 0.0
2014-Oct-18 12:31N 49°28' E 000°08'0 0.0
2014-Oct-18 11:31N 49°28' E 000°08'0 0.0
2014-Oct-18 10:31N 49°28' E 000°08'0 0.0
2014-Oct-18 09:31N 49°28' E 000°08'0 0.0
2014-Oct-18 08:31N 49°28' E 000°08'0 0.0
2014-Oct-18 07:31N 49°28' E 000°08'0 0.0
2014-Oct-18 06:31N 49°28' E 000°08'0 0.0
2014-Oct-18 05:31N 49°28' E 000°08'0 0.0
2014-Oct-18 04:31N 49°28' E 000°08'0 0.0
2014-Oct-18 03:31N 49°28' E 000°08'0 0.0
2014-Oct-18 02:31N 49°28' E 000°08'0 0.0
2014-Oct-18 01:31N 49°28' E 000°08'0 0.0
2014-Oct-18 00:31N 49°28' E 000°08'0 0.0
2014-Oct-17 23:31N 49°28' E 000°08'0 0.0
2014-Oct-17 22:31N 49°28' E 000°08'0 0.0
2014-Oct-17 21:31N 49°28' E 000°08'0 0.0
2014-Oct-17 20:31N 49°28' E 000°08'0 0.0
2014-Oct-17 19:31N 49°28' E 000°08'0 0.0
2014-Oct-17 18:31N 49°28' E 000°08'0 0.0
2014-Oct-17 17:33N 49°28' E 000°08'9 9.1
2014-Oct-17 16:33N 49°31' W 000°05'10 9.8
2014-Oct-17 15:33N 49°40' W 000°12'5310.6
2014-Oct-17 10:33N 50°31' E 000°11'1312.6
2014-Oct-17 09:33N 50°36' E 000°29'1212.4
2014-Oct-17 08:33N 50°43' E 000°45'1612.5
2014-Oct-17 07:19N 50°52' E 001°05'811.1
2014-Oct-17 06:33N 50°58' E 001°15'1110.7
2014-Oct-17 05:33N 51°04' E 001°28'1111.0
2014-Oct-17 04:33N 51°11' E 001°42'1211.8
2014-Oct-17 03:33N 51°20' E 001°54'1010.0
2014-Oct-17 02:33N 51°23' E 002°09'1211.8
2014-Oct-17 01:33N 51°23' E 002°28'1312.8
2014-Oct-17 00:33N 51°22' E 002°49'1717.0
2014-Oct-16 23:33N 51°25' E 003°16'1514.7
2014-Oct-16 22:33N 51°27' E 003°39'1211.8
2014-Oct-16 21:33N 51°26' E 003°58'1212.3
2014-Oct-16 20:34N 51°21' E 004°16'1 0.6
2014-Oct-16 19:34N 51°21' E 004°17'0 0.3
2014-Oct-16 18:33N 51°21' E 004°18'1 1.5
2014-Oct-16 17:32N 51°19' E 004°19'0 0.0
2014-Oct-16 16:32N 51°19' E 004°19'0 0.0
2014-Oct-16 15:32N 51°19' E 004°19'0 0.0
2014-Oct-16 14:32N 51°19' E 004°19'0 0.0
2014-Oct-16 13:32N 51°19' E 004°19'0 0.0
2014-Oct-16 12:26N 51°19' E 004°19'0 0.0
2014-Oct-16 11:32N 51°19' E 004°19'0 0.0
2014-Oct-16 10:32N 51°19' E 004°19'0 0.0
2014-Oct-16 09:29N 51°19' E 004°19'0 0.0
2014-Oct-16 08:32N 51°19' E 004°19'0 0.0
2014-Oct-16 07:32N 51°19' E 004°19'0 0.0
2014-Oct-16 06:32N 51°19' E 004°19'1 1.2
2014-Oct-16 05:34N 51°20' E 004°18'1 0.5
2014-Oct-16 04:34N 51°21' E 004°17'3 2.7
2014-Oct-16 03:33N 51°22' E 004°13'1010.1
2014-Oct-16 02:34N 51°25' E 003°58'  

Dump ship's entire track history